Regional Weather Roundup
Issued by NWS

Home | Current Version | Previous Version | Graphics & Text | Print | Product List | Glossary On
Versions: 1 2 3 4 5 6 7 8 9 10 11 12 13 14 15 16 17 18 19 20 21 22 23 24 25 26 27
000
ASUS45 KBOI 261810
RWRID

IDAHO REGIONAL WEATHER ROUNDUP
NATIONAL WEATHER SERVICE BOISE ID
1200 PM MDT FRI AUG 26 2016

NOTE: "FAIR" INDICATES FEW OR NO CLOUDS BELOW 12000 FEET
WITH NO SIGNIFICANT WEATHER AND/OR OBSTRUCTIONS TO VISIBILITY

IDZ012-014-261900-
SOUTHWEST IDAHO


CITY           SKY/WX    TMP DP  RH WIND       PRES   REMARKS
BOISE          SUNNY     75  32  20 CALM      30.00F
CALDWELL       SUNNY     75  41  29 CALM      30.00F
MOUNTAIN HOME  MOSUNNY   74  35  24 E8        30.01F
$$

IDZ016-017-261900-
SOUTHCENTRAL IDAHO


CITY           SKY/WX    TMP DP  RH WIND       PRES   REMARKS
BURLEY         MOSUNNY   69  37  30 W6        30.04F
JEROME         MOSUNNY   68  32  26 VRB6      30.05S
TWIN FALLS     MOSUNNY   73  35  25 NW9       30.05S
$$

IDZ019>023-261900-
SOUTHEAST IDAHO


CITY           SKY/WX    TMP DP  RH WIND       PRES   REMARKS
IDAHO FALLS    MOSUNNY   68  34  28 S7        30.07F
POCATELLO      PTSUNNY   67  35  30 W8        30.07S
REXBURG        CLOUDY    69  35  28 SW7       30.07F
$$

IDZ006-010-011-018-031-032-261900-
CENTRAL IDAHO MOUNTAINS


CITY           SKY/WX    TMP DP  RH WIND       PRES   REMARKS
MCCALL         SUNNY     70  32  24 SW8       30.08S
HAILEY         MOSUNNY   66  39  37 SE7       30.10F
STANLEY          N/A     66  30  26 VRB5      30.14F
SALMON         SUNNY     64  36  34 CALM      30.06F
CHALLIS        SUNNY     66  32  28 CALM      30.08F
$$

IDZ002-004-006-007-026-261900-
NORTHERN IDAHO


CITY           SKY/WX    TMP DP  RH WIND       PRES   REMARKS
LEWISTON       SUNNY     76  37  24 VRB3      29.98F
LOWELL           N/A     71  39  31 CALM      30.01F
COEUR D`ALENE  SUNNY     73  45  35 CALM      29.98F
MULLAN PASS    MOSUNNY   59  35  40 VRB5      30.15F
$$




USA.gov is the U.S. government's official web portal to all federal, state and local government web resources and services.